Home > Weather > Einbeck > Past weeks

Flag for Germany Past Weather in Einbeck, Lower Saxony, Germany — Yesterday and Last 2 Weeks

Now
63 °F

Passing clouds.


Feels Like: 63 °F
Forecast: 46 / 74 °F
Wind: 7 mph from Southwest

Location: Hannover

Current Time: Aug 29, 2016 at 4:22:17 AM

Latest Report: Aug 29, 2016 at 3:50 AM


Visibility: N/A

Pressure: 29.92 "Hg

Humidity: 77%

Dew Point: 55 °F

Location of EinbeckLocation

Past Weather in Einbeck — Graph

°F

Einbeck Temperature Yesterday

Maximum temperature yesterday: 93 °F (at 3:20 PM)
Minimum temperature yesterday: 64 °F (at 4:50 AM)
Average temperature yesterday: 77 °F

High & Low Weather Summary for the Past Weeks

 TemperatureHumidityPressure
High93 °F (Aug 28, 3:20 PM)100% (Aug 14, 5:20 AM)30.33 "Hg (Aug 14, 5:20 AM)
Low45 °F (Aug 18, 5:50 AM)20% (Aug 25, 6:50 PM)29.80 "Hg (Aug 18, 3:20 PM)
Average67 °F68%30.06 "Hg
* Reported Aug 14 3:20 AM — Aug 29 3:20 AM, Einbeck, Weather by CustomWeather, © 2016

Note: Actual official high and low records may vary slightly from our data, if they occured in-between our weather recording intervals... More about our weather records

Advertising

Einbeck Weather History for the Previous 24 Hours

Scroll right to see more
 ConditionsComfort  
Time TempWeatherWind HumidityBarometerVisibility
3:20 AM
Mon, Aug 29
63 °FPassing clouds.6 mph77%29.92 "HgN/A
2:50 AM64 °FPassing clouds.8 mph73%29.95 "HgN/A
2:20 AM64 °FPassing clouds.9 mph68%29.95 "HgN/A
1:50 AM64 °FPassing clouds.7 mph73%29.95 "HgN/A
1:20 AM64 °FPassing clouds.6 mph73%29.95 "HgN/A
12:50 AM64 °FMild.5 mph68%29.95 "HgN/A
12:20 AM64 °FPassing clouds.3 mph68%29.95 "HgN/A
11:50 PM
Sun, Aug 28
64 °FPassing clouds.5 mph68%29.95 "HgN/A
11:20 PM66 °FPassing clouds.5 mph64%29.95 "HgN/A
10:50 PM68 °FClear.7 mph60%29.95 "Hg10 mi
10:20 PM70 °FClear.9 mph57%29.95 "Hg10 mi
9:50 PM72 °FClear.16 mph61%29.95 "Hg10 mi
9:20 PM73 °FPassing clouds.18 mph61%29.92 "HgN/A
8:50 PM75 °FScattered clouds.14 mph50%29.89 "HgN/A
8:20 PM77 °FBroken clouds.10 mph61%29.89 "HgN/A
7:50 PM77 °FPartly sunny.12 mph61%29.89 "HgN/A
7:20 PM75 °FThunderstorms. Partly sunny.5 mph69%29.86 "Hg4 mi
6:50 PM82 °FThunderstorms. Broken clouds.15 mph55%29.86 "HgN/A
6:20 PM84 °FSunny.17 mph45%29.83 "Hg10 mi
5:50 PM86 °FBroken clouds.14 mph43%29.83 "HgN/A
5:20 PM88 °FBroken clouds.16 mph38%29.80 "HgN/A
4:50 PM90 °FBroken clouds.12 mph33%29.80 "HgN/A
4:20 PM91 °FScattered clouds.13 mph30%29.80 "HgN/A
3:50 PM93 °FScattered clouds.14 mph26%29.80 "HgN/A
3:20 PM93 °FScattered clouds.9 mph32%29.80 "HgN/A
2:50 PM91 °FScattered clouds.12 mph32%29.83 "HgN/A
2:20 PM91 °FPassing clouds.17 mph30%29.83 "HgN/A
1:50 PM91 °FPassing clouds.9 mph34%29.86 "HgN/A
1:20 PM91 °FPassing clouds.12 mph36%29.86 "HgN/A
12:50 PM88 °FPassing clouds.7 mph38%29.86 "HgN/A
12:20 PM86 °FPassing clouds.6 mph43%29.89 "HgN/A
11:50 AM84 °FPassing clouds.7 mph45%29.89 "HgN/A
11:20 AM82 °FSunny.8 mph48%29.89 "Hg10 mi
10:50 AM79 °FPassing clouds.8 mph54%29.89 "HgN/A
10:20 AM77 °FPassing clouds.6 mph57%29.89 "HgN/A
9:50 AM75 °FPassing clouds.7 mph65%29.92 "HgN/A
9:20 AM73 °FPassing clouds.8 mph69%29.92 "HgN/A
8:50 AM72 °FPassing clouds.8 mph69%29.92 "HgN/A
8:20 AM70 °FPassing clouds.3 mph73%29.92 "HgN/A
7:50 AM68 °FPartly sunny.2 mph78%29.92 "HgN/A
7:20 AM66 °FScattered showers. Partly cloudy.5 mph83%29.92 "HgN/A
6:50 AM66 °FPartly cloudy.3 mph83%29.92 "HgN/A
6:20 AM66 °FScattered showers. Partly cloudy.2 mph83%29.92 "HgN/A
5:50 AM68 °FPassing clouds.6 mph78%29.92 "HgN/A
5:20 AM64 °FClear.7 mph88%29.92 "Hg10 mi
4:50 AM64 °FPassing clouds.5 mph88%29.92 "HgN/A
4:20 AM68 °FClear.2 mph78%29.92 "Hg10 mi
Weather by CustomWeather, © 2016

See weather overviewHow to use our weather pages